Weather in Dinard

France     48°38′02″N   2°04′03″W
В апреле 2022 года жителям России запретили посещать сайт meteo.paraplan.net по решению Генеральной прокуратуры. Аудитория сайта уменьшилась в 10 раз. Владельцы сайта не видят смысла в поддержке погодного сервера в таких условиях. Сайт будет закрыт в октябре.
temp.,
°C
wind,
m/s
gust,
m/s
humid.,
%
clouds,
%
prec.,
mm/h
press.,
hPa
HPBL,
m
3 october, mon
mon323:00+16ene78865 0.0 1025382
02:00+15e678436 0.0 1025306
05:00+16ese4589100 0.1 1025299
08:00+16se559178 0.1 1024270
11:00+16se678873 0.0 1025534
14:00+18se687527 0.1 1024522
17:00+20sse246869 0.0 1022214
20:00+18w468018 0.0 1022137
4 october, tue
tue423:00+17sw34825 0.0 1022105
02:00+16ssw44855 0.0 1021181
05:00+15ssw448780 0.0 1020200
08:00+14sw458561 0.0 1019254
11:00+15sw458211 0.0 1020302
14:00+17sw3571100 0.0 1020373
17:00+18e1273100 0.0 1019164
20:00+19sw7107398 0.0 1018235
5 october, wed
wed523:00+17ssw71082100 0.0 1018382
02:00+15ssw81288100 0.0 1017414
05:00+16ssw91589100 0.0 1015535
08:00+16ssw10179034 0.0 1014619
11:00+18sw1117760 0.0 1014739
14:00+17wnw131488100 0.7 1016810
17:00+16wnw1112727 1.1 10201004
20:00+16wnw1112650 1.1 10241251
6 october, thu
thu623:00+16nw9116240 0.0 10281361
02:00+15nw89620 0.0 10301232
05:00+15nw55610 0.0 10301138
08:00+15wnw44634 0.0 1032982
11:00+15wnw33625 0.0 1033975
14:00+15wnw32632 0.0 1033779
17:00+15nnw22605 0.0 1031665
20:00+15n226363 0.0 1030391
7 october, fri
fri723:00+15nne1163100 0.0 1030322
02:00+14e1164100 0.0 1029327
05:00+14w016480 0.0 1027356
08:00+14ssw1165100 0.0 1026376
11:00+14wsw226843 0.0 1027438
14:00+15wnw226537 0.0 1025415
17:00+15nw33600 0.0 1024329
20:00+15nw44690 0.0 1024463